Location: Hilde
(52.9479°N, 6.4449°E)
Time: 22:12:35
(UTC+00:00)

Intercosmos 24 - Pass Details

Date: 15 May 2026
Orbit: 497 x 2352 km, 82.6° (Epoch: 10 June)

Event Time Altitude Azimuth Distance (km) Brightness Sun altitude
Rises 22:45:59 0° 352° (N) 2,962 9.3 -17.4°
Reaches altitude 10° 22:48:29 10° 359° (N) 1,896 7.8 -17.4°
Maximum altitude 22:52:15 43° 72° (ENE) 730 4.4 -17.5°
Enters shadow 22:53:30 31° 122° (ESE) 911 4.6 -17.6°
